Location: Hungerford
(51.4167°N, 1.5167°W)
Time: 15:29:24
(UTC+00:00)

Cosmos 1674 - Pass Details

Date: 18 September 2020
Orbit: 494 x 518 km, 82.5° (Epoch: 27 October)

Event Time Altitude Azimuth Distance (km) Brightness Sun altitude
Rises 19:01:38 0° 0° (N) 2,656 6.5 -8.4°
Reaches altitude 10° 19:04:14 10° 18° (NNE) 1,763 5.4 -8.8°
Maximum altitude 19:07:08 20° 67° (ENE) 1,250 4.2 -9.2°
Enters shadow 19:09:19 13° 107° (ESE) 1,556 4.4 -9.6°
